Wind_Speed
4 5 6 7 7 6 6 5 5 6 6 7 7 7 7 8 8 8 7 7 7 7 7 7 7 6 6 6 6 6 6 6 6 6 6 6 7 8 8 7 7 8 8
4 5 7 7 7 6 6 6 5 6 6 6 7 7 7 7 7 7 7 7 7 7 6 6 6 5 5 5 5 5 5 5 5 6 6 6 6 7 7 7 7 7 7
5 5 6 7 8 7 7 7 6 6 6 6 6 7 7 7 7 6 6 6 6 6 6 5 5 4 4 5 5 5 5 5 5 6 5 5 6 6 7 7 7 7 7
6 5 6 7 7 8 8 7 7 7 7 7 7 6 6 6 6 6 6 5 5 5 4 4 4 4 4 4 4 4 4 5 5 5 5 5 5 6 6 6 6 6 6
7 7 7 8 8 8 8 8 7 7 7 7 7 6 6 6 6 5 5 5 5 4 3 3 3 3 3 3 3 3 3 4 4 4 4 4 5 5 5 5 5 5 5
7 7 8 8 8 8 8 8 8 8 7 7 7 7 6 6 5 5 4 4 4 3 3 2 2 2 2 2 2 2 2 3 3 3 3 3 4 4 4 4 4 4 4
7 8 9 9 9 9 9 8 9 9 8 8 8 7 6 6 5 5 4 3 3 2 2 2 2 2 1 1 1 1 2 2 2 2 2 3 3 3 3 3 3 3 4
7 8 9 10 10 10 9 9 9 9 9 9 8 7 7 6 5 5 4 3 2 2 2 2 2 2 2 1 1 1 0 1 1 1 1 2 2 2 2 2 2 2 2
7 9 10 10 10 11 11 10 10 10 9 9 9 8 8 7 6 5 4 3 3 2 2 2 2 2 2 2 1 1 1 0 0 1 1 1 1 1 1 1 1 1 1
7 8 9 10 11 11 12 12 11 11 11 10 10 9 8 8 7 6 5 4 3 3 2 2 2 2 2 2 1 1 1 0 1 1 1 1 1 1 1 1 1 1 0
8 8 9 10 12 12 13 13 13 12 12 11 11 10 9 8 8 7 6 4 3 3 3 2 3 3 2 2 1 1 1 1 1 1 1 1 2 2 2 2 2 2 2
9 9 10 11 12 13 14 15 14 13 13 13 12 11 10 9 9 8 7 5 4 3 3 3 3 3 3 2 1 1 0 0 1 1 1 2 2 2 2 2 3 4 4
10 10 11 12 13 13 15 16 15 15 15 14 13 13 11 10 9 8 7 6 5 4 4 3 4 3 3 2 2 1 1 1 2 2 3 2 2 2 2 3 3 4 4
11 11 12 13 14 14 15 17 17 16 15 15 14 14 12 11 10 9 7 6 6 5 4 4 4 4 3 3 2 2 2 2 3 3 3 3 3 3 3 3 4 4 4
12 12 12 13 14 15 15 17 17 17 17 16 15 14 13 12 10 9 8 7 6 6 5 5 5 4 4 3 2 2 2 2 2 2 2 3 3 3 3 4 4 5 5
14 13 13 14 14 15 15 16 17 17 17 16 15 15 13 12 11 10 9 7 7 6 6 5 5 4 3 3 3 2 2 2 2 2 2 2 3 3 3 4 4 4 4
15 14 14 14 15 16 16 16 17 17 17 17 16 15 14 13 12 11 10 8 7 7 6 6 5 5 4 4 3 3 2 2 2 2 2 2 2 3 3 3 3 4 5
17 16 16 15 15 16 17 17 17 17 18 18 17 16 15 14 12 11 10 9 8 7 7 6 5 5 5 4 3 3 2 2 2 2 2 2 2 2 3 3 3 4 4
18 17 17 17 16 16 17 17 18 18 19 19 18 17 16 15 13 12 10 10 8 7 7 7 6 5 5 4 4 3 2 2 2 1 1 1 2 2 3 3 3 4 4
18 18 17 17 16 16 17 17 17 18 19 19 18 18 17 15 14 12 11 11 10 9 8 7 7 6 5 5 4 3 3 2 2 2 1 1 1 2 2 3 4 4 4
19 19 18 18 17 17 17 17 17 18 19 19 19 18 18 16 15 14 12 11 11 10 9 8 8 7 6 5 5 4 3 3 2 2 2 2 2 2 2 3 4 4 5
19 19 19 18 17 17 17 17 18 18 19 20 20 19 18 17 16 14 13 12 11 11 10 9 9 8 7 7 6 5 4 3 3 3 2 1 2 2 2 3 3 4 5
17 17 17 18 18 18 18 17 17 18 19 20 20 20 19 18 17 15 14 13 12 11 11 10 9 9 8 7 7 6 5 4 3 3 2 2 2 2 3 3 3 4 4
16 16 15 17 17 17 18 17 18 20 20 20 21 21 20 19 18 16 15 15 14 12 12 11 11 10 10 9 8 7 6 5 4 3 3 3 3 3 3 4 4 5 5
15 14 14 17 17 17 18 18 19 20 20 21 21 20 20 19 18 18 17 16 15 14 13 13 12 11 11 10 9 8 7 6 5 5 4 4 4 4 5 5 5 5 6
12 13 13 15 16 16 18 19 18 19 20 20 21 20 20 19 19 19 18 17 16 15 14 13 13 12 11 10 10 9 8 7 6 5 5 5 6 6 6 6 7 7 8
Wind_Direction
212 193 194 186 177 177 181 186 184 182 178 169 159 150 141 132 124 118 113 109 106 104 102 98 94 91 87 85 84 87 90 95 93 89 83 82 82 87 90 90 89 89 88
220 201 193 188 185 188 193 196 196 194 188 179 169 160 150 139 130 123 118 114 109 106 104 100 96 91 83 80 82 87 93 94 93 92 90 87 87 94 93 92 88 89 88
220 201 199 194 191 194 200 203 202 202 198 189 180 170 158 147 138 130 123 118 114 109 107 104 97 91 85 84 88 90 95 97 97 98 97 91 94 96 95 93 89 87 87
236 219 209 202 199 200 203 205 203 205 204 199 191 179 165 153 147 141 133 126 123 117 112 107 102 94 87 88 95 97 102 104 104 104 100 98 101 97 97 95 91 88 87
248 229 217 210 207 207 205 208 209 209 210 206 200 190 177 165 158 152 144 136 130 123 117 113 112 107 102 96 99 106 104 108 109 106 106 112 105 101 100 95 95 90 87
252 237 224 218 215 215 213 213 217 217 213 210 206 199 190 178 172 166 157 149 140 129 123 127 129 127 120 112 101 107 107 104 108 113 111 121 114 106 101 95 92 91 87
255 245 236 226 222 220 218 220 222 220 216 216 213 208 203 196 189 182 176 170 160 149 140 150 163 156 145 143 132 121 103 100 113 113 117 124 124 112 106 107 98 91 88
256 248 241 236 229 222 220 222 223 223 222 220 220 218 215 207 201 194 190 189 187 179 168 170 186 188 183 168 161 166 151 113 121 110 124 129 135 123 110 117 113 99 87
261 252 244 239 232 225 222 223 224 225 225 224 224 224 221 215 210 205 204 206 204 196 186 193 199 202 197 189 195 226 248 97 96 125 157 167 174 160 130 121 129 115 90
272 252 245 240 233 230 227 224 225 226 226 226 226 227 226 221 219 217 217 218 216 207 200 197 202 207 205 203 220 246 248 251 257 192 188 200 200 203 199 208 225 234 276
279 254 247 242 236 233 232 228 228 228 229 228 226 227 225 224 225 226 226 224 221 214 211 206 204 205 202 201 211 243 242 206 235 206 236 244 232 230 241 254 259 266 263
279 257 249 246 241 234 234 230 229 229 229 228 227 228 226 227 228 230 230 226 220 222 223 215 201 195 195 199 207 245 255 215 234 257 267 259 246 250 257 271 267 271 275
284 268 255 250 243 237 233 230 230 230 229 229 228 228 227 228 230 232 233 232 229 231 220 211 193 185 187 202 217 227 237 248 259 239 251 259 257 259 266 280 282 279 284
287 276 265 254 246 241 236 230 228 230 230 231 229 226 228 230 231 233 236 242 239 231 218 209 199 192 199 210 221 230 229 239 243 251 257 265 269 271 274 283 296 292 293
294 288 275 262 252 246 242 233 229 230 230 229 229 229 232 234 234 236 239 239 241 232 222 214 199 202 200 195 212 219 231 262 262 259 279 275 277 274 275 286 294 293 292
292 289 279 268 255 248 244 237 233 231 230 228 229 230 232 234 235 237 240 240 239 232 227 223 214 208 206 203 210 225 246 264 275 272 279 295 291 283 283 290 299 305 304
288 284 280 270 254 245 244 243 235 232 231 229 229 232 231 230 232 235 237 237 237 232 228 228 226 219 217 218 219 227 238 261 271 274 278 295 297 293 297 302 308 315 318
286 287 280 271 258 250 248 243 238 233 231 230 231 231 230 230 233 234 233 235 235 234 230 228 228 227 222 221 221 223 239 254 265 271 283 298 310 310 308 310 318 319 321
285 284 280 271 260 251 246 243 238 235 234 230 230 232 231 231 233 233 234 237 236 236 230 224 226 229 225 224 229 237 249 260 269 261 271 294 316 327 327 328 332 331 335
281 281 280 275 260 252 250 245 236 237 235 230 229 231 231 230 233 234 237 238 236 236 233 230 229 230 230 230 232 239 245 247 253 257 265 281 306 316 326 341 353 352 353
279 278 277 271 263 255 252 246 238 234 232 230 228 230 230 230 232 233 234 234 234 237 240 237 232 229 227 226 229 233 241 243 248 246 256 275 304 312 320 330 334 341 346
281 276 272 266 260 257 251 245 238 231 229 229 229 228 227 228 228 231 231 233 234 236 237 239 237 231 230 229 231 232 236 241 239 239 249 273 288 298 321 332 334 338 342
284 276 267 260 257 253 248 242 234 229 230 229 229 227 226 225 227 230 229 231 231 233 235 235 236 231 231 230 233 236 231 228 228 233 252 274 283 293 304 320 329 334 339
283 278 264 254 252 248 242 239 235 233 231 231 231 229 226 226 227 231 230 231 232 233 233 234 235 234 232 231 232 234 227 224 231 237 256 270 284 292 300 309 315 321 326
282 276 261 251 250 244 238 238 236 234 232 230 229 228 226 226 227 230 231 233 233 233 234 233 235 234 230 229 230 231 229 230 234 240 251 262 274 285 295 299 304 311 315
283 273 262 252 246 239 234 235 239 236 234 231 229 226 225 226 228 230 230 232 232 233 233 234 235 233 229 227 227 230 233 239 245 251 257 264 273 282 289 294 297 301 305
Height
5878 5878 5879 5880 5881 5882 5883 5883 5884 5884 5885 5885 5885 5885 5886 5886 5886 5886 5887 5887 5887 5887 5888 5888 5888 5888 5888 5888 5888 5888 5888 5888 5888 5889 5889 5890 5890 5890 5891 5891 5892 5892 5892
5878 5878 5879 5880 5881 5882 5883 5884 5884 5885 5885 5886 5886 5886 5886 5887 5887 5887 5887 5888 5888 5888 5889 5889 5889 5889 5889 5889 5889 5889 5889 5889 5889 5890 5891 5891 5891 5892 5892 5893 5893 5894 5894
5878 5878 5879 5880 5881 5882 5883 5884 5884 5885 5886 5886 5887 5887 5887 5887 5888 5888 5888 5888 5889 5889 5889 5890 5890 5890 5890 5890 5890 5890 5890 5891 5891 5891 5892 5892 5893 5893 5894 5894 5895 5895 5895
5877 5878 5879 5880 5881 5882 5883 5884 5885 5885 5886 5886 5887 5887 5888 5888 5888 5889 5889 5889 5890 5890 5890 5890 5891 5891 5891 5891 5891 5892 5892 5892 5892 5892 5893 5894 5894 5894 5895 5895 5896 5896 5897
5877 5878 5878 5880 5881 5882 5882 5884 5885 5885 5886 5887 5887 5888 5888 5889 5889 5889 5890 5890 5890 5890 5891 5891 5891 5892 5892 5892 5892 5893 5893 5893 5893 5894 5894 5895 5895 5896 5896 5897 5897 5898 5898
5876 5877 5878 5879 5880 5881 5882 5883 5884 5885 5886 5887 5888 5888 5889 5889 5889 5890 5890 5891 5891 5891 5891 5892 5892 5892 5892 5893 5893 5893 5894 5894 5894 5895 5895 5896 5896 5897 5897 5898 5898 5899 5899
5876 5876 5877 5878 5879 5880 5882 5883 5884 5885 5886 5887 5888 5888 5889 5889 5890 5890 5891 5891 5891 5892 5892 5892 5892 5893 5893 5893 5893 5894 5894 5895 5895 5895 5896 5897 5897 5897 5898 5898 5899 5900 5900
5874 5875 5876 5877 5878 5880 5881 5882 5883 5884 5886 5887 5887 5888 5889 5889 5890 5890 5891 5891 5892 5892 5892 5892 5893 5893 5893 5893 5894 5894 5895 5895 5896 5896 5897 5897 5898 5898 5899 5899 5900 5901 5901
5872 5874 5875 5876 5877 5878 5880 5881 5882 5884 5885 5886 5887 5888 5889 5889 5890 5890 5891 5891 5891 5892 5892 5892 5893 5893 5893 5894 5894 5895 5895 5896 5896 5897 5897 5898 5898 5899 5899 5900 5901 5901 5902
5871 5872 5873 5874 5875 5877 5878 5880 5881 5883 5884 5885 5886 5887 5888 5889 5889 5890 5891 5891 5891 5892 5892 5892 5893 5893 5893 5894 5894 5895 5895 5896 5896 5897 5897 5898 5899 5899 5900 5901 5901 5902 5902
5870 5871 5871 5872 5873 5875 5877 5878 5880 5881 5883 5884 5885 5886 5887 5888 5889 5890 5890 5891 5891 5892 5892 5892 5892 5893 5893 5894 5894 5895 5895 5896 5896 5897 5898 5898 5899 5900 5900 5901 5901 5902 5903
5869 5869 5870 5870 5871 5873 5875 5876 5878 5880 5881 5883 5884 5885 5886 5887 5888 5889 5890 5890 5891 5891 5892 5892 5892 5893 5894 5894 5894 5895 5895 5896 5897 5897 5898 5899 5899 5900 5900 5901 5901 5902 5902
5867 5867 5868 5868 5869 5871 5872 5874 5876 5878 5879 5881 5883 5884 5886 5886 5888 5889 5889 5890 5890 5891 5891 5892 5892 5893 5894 5894 5894 5895 5896 5897 5897 5897 5898 5899 5899 5900 5900 5901 5901 5902 5902
5865 5865 5865 5865 5866 5868 5870 5872 5874 5876 5878 5879 5881 5883 5884 5885 5887 5888 5889 5889 5890 5890 5891 5891 5892 5893 5894 5894 5894 5895 5895 5896 5897 5897 5898 5898 5899 5900 5900 5900 5901 5901 5901
5863 5863 5862 5863 5864 5865 5867 5869 5872 5874 5876 5877 5879 5881 5883 5884 5886 5887 5888 5889 5889 5890 5891 5891 5892 5893 5893 5894 5895 5894 5895 5896 5896 5897 5897 5898 5899 5899 5900 5900 5900 5900 5901
5860 5860 5860 5860 5861 5862 5864 5867 5869 5871 5873 5876 5878 5880 5881 5883 5885 5886 5887 5888 5888 5889 5890 5890 5892 5892 5892 5894 5895 5895 5895 5895 5896 5897 5897 5898 5898 5899 5899 5899 5900 5900 5900
5858 5857 5857 5857 5858 5859 5861 5864 5866 5869 5871 5874 5876 5877 5879 5881 5883 5885 5886 5887 5888 5888 5889 5890 5891 5892 5893 5893 5894 5895 5895 5895 5896 5897 5897 5898 5898 5898 5899 5899 5899 5899 5899
5855 5854 5854 5854 5855 5857 5858 5861 5863 5866 5869 5872 5874 5875 5878 5880 5881 5883 5884 5886 5887 5888 5889 5890 5891 5892 5892 5893 5894 5894 5895 5895 5896 5896 5897 5897 5898 5898 5898 5899 5899 5899 5899
5851 5851 5851 5851 5852 5853 5855 5857 5860 5863 5866 5869 5871 5874 5876 5878 5879 5881 5883 5884 5886 5887 5888 5889 5890 5891 5892 5892 5893 5893 5894 5895 5895 5896 5897 5897 5898 5898 5898 5898 5899 5899 5899
5848 5848 5847 5847 5848 5850 5852 5854 5857 5860 5863 5866 5869 5871 5873 5876 5878 5880 5882 5883 5884 5886 5887 5888 5889 5890 5891 5892 5892 5893 5893 5894 5894 5895 5896 5897 5897 5898 5898 5898 5898 5898 5898
5843 5843 5844 5844 5845 5846 5848 5850 5853 5857 5860 5863 5866 5868 5871 5873 5876 5878 5880 5882 5883 5884 5885 5886 5887 5889 5890 5891 5892 5892 5893 5893 5894 5894 5895 5896 5897 5897 5898 5898 5898 5898 5898
5838 5838 5839 5840 5841 5843 5845 5847 5850 5853 5856 5859 5863 5866 5868 5871 5873 5876 5878 5880 5881 5883 5884 5885 5886 5888 5889 5890 5891 5891 5892 5893 5893 5894 5894 5895 5896 5896 5897 5897 5897 5897 5897
5834 5834 5834 5835 5837 5839 5841 5843 5846 5849 5852 5856 5860 5863 5865 5868 5871 5873 5876 5878 5879 5881 5882 5883 5885 5886 5887 5888 5889 5890 5891 5892 5892 5893 5893 5894 5895 5895 5896 5896 5896 5896 5896
5830 5829 5829 5831 5833 5834 5837 5839 5842 5846 5849 5853 5856 5859 5862 5865 5868 5871 5874 5876 5877 5879 5880 5881 5883 5884 5885 5886 5887 5888 5890 5890 5891 5892 5893 5893 5894 5894 5895 5895 5895 5895 5895
5826 5825 5826 5827 5828 5830 5832 5835 5839 5842 5845 5848 5852 5856 5859 5862 5865 5868 5871 5873 5875 5877 5878 5879 5881 5882 5883 5884 5886 5887 5888 5889 5890 5891 5891 5892 5892 5893 5893 5893 5893 5894 5894
5823 5822 5822 5823 5824 5827 5829 5831 5834 5838 5841 5844 5848 5852 5856 5859 5862 5865 5868 5870 5872 5874 5876 5877 5878 5880 5881 5882 5884 5885 5886 5887 5888 5889 5890 5890 5891 5891 5891 5892 5892 5892 5892